CW5763 Weather Reports


Display with metric or nautical units.
time (UTC)temp
F
wind
direction
speed
MPH
gust
MPH
rain 1hr
in
rain 24hr
in
rain mn
in
humidity
%
barometer
mb
20260507082006 55 124 7.0 15.0 0.00 0.00 0.00 82 1015.6
20260507081006 54 145 6.0 14.0 0.00 0.00 0.00 83 1015.5
20260507080006 54 131 6.0 15.0 0.00 0.00 0.00 83 1015.5
20260507075006 54 132 10.0 15.0 0.00 0.00 0.00 83 1015.4
20260507074006 53 133 7.0 14.0 0.00 0.00 0.00 85 1015.4
20260507073006 53 132 8.0 15.0 0.00 0.00 0.00 87 1015.3
20260507072006 52 130 9.0 15.0 0.00 0.00 0.00 88 1015.2
20260507071006 52 129 9.0 15.0 0.00 0.00 0.00 92 1015.2
20260507070010 51 145 7.0 12.0 0.00 0.00 0.00 95 1015.1
20260507065007 50 142 7.0 12.0 0.00 0.00 0.00 96 1015.1
20260507063006 47 138 2.0 5.0 0.00 0.00 0.00 96 1015.2
20260507062006 46 136 2.0 3.0 0.00 0.00 0.00 96 1015.2
20260507061006 46 243 1.0 2.0 0.00 0.00 0.00 96 1015.2
20260507060006 45 267 1.0 2.0 0.00 0.00 0.00 96 1015.1
20260507055006 44 291 0.0 1.0 0.00 0.00 0.00 96 1015.0
20260507053006 42 291 0.0 0.0 0.00 0.00 0.00 95 1015.1
20260507052006 42 291 0.0 0.0 0.00 0.00 0.00 95 1015.0
20260507050006 41 291 0.0 0.0 0.00 0.00 0.00 93 1014.9
20260507045006 42 291 0.0 0.0 0.00 0.00 0.00 93 1014.8
20260507044007 42 291 0.0 0.0 0.00 0.00 0.00 93 1014.8
20260507043006 42 291 0.0 0.0 0.00 0.00 0.00 93 1014.7
20260507042006 42 291 0.0 0.0 0.00 0.00 0.00 93 1014.7
20260507041006 42 291 0.0 0.0 0.00 0.00 0.00 92 1014.6
20260507040006 42 291 0.0 0.0 0.00 0.00 0.00 92 1014.6
20260507035006 43 291 0.0 0.0 0.00 0.00 0.00 92 1014.6
20260507034006 43 291 0.0 0.0 0.00 0.00 0.00 93 1014.6
20260507031005 43 291 0.0 0.0 0.00 0.00 0.00 92 1014.5
20260507024005 43 291 0.0 0.0 0.00 0.00 0.00 90 1014.4
20260507023005 44 291 0.0 0.0 0.00 0.00 0.00 90 1014.3
20260507022006 44 291 0.0 0.0 0.00 0.00 0.00 91 1014.1
20260507021007 43 291 0.0 0.0 0.00 0.00 0.00 90 1013.9
20260507020005 44 291 0.0 0.0 0.00 0.00 0.00 88 1013.9
20260507015006 44 291 0.0 0.0 0.00 0.00 0.00 88 1013.9
20260507014004 44 291 0.0 0.0 0.00 0.00 0.00 88 1014.0
20260507013005 45 291 0.0 0.0 0.00 0.00 0.00 88 1013.9
20260507012005 45 291 0.0 0.0 0.00 0.00 0.00 87 1014.0
20260507010005 45 291 0.0 0.0 0.00 0.00 0.00 88 1014.1
20260507004005 45 291 0.0 0.0 0.00 0.00 0.00 85 1014.2
20260507003005 46 291 0.0 0.0 0.00 0.00 0.00 85 1014.2
20260507002006 46 291 0.0 0.0 0.00 0.00 0.00 85 1014.2
20260507001005 46 291 0.0 0.0 0.00 0.00 0.00 84 1014.3
20260507000006 47 291 0.0 0.0 0.00 0.00 0.00 84 1014.3
20260506235005 47 291 0.0 1.0 0.00 0.00 0.00 84 1014.2
20260506234005 47 291 0.0 1.0 0.00 0.00 0.00 83 1014.2
20260506233006 48 291 0.0 0.0 0.00 0.00 0.00 82 1014.2
20260506232005 48 291 0.0 0.0 0.00 0.00 0.00 82 1014.2
20260506231005 48 291 0.0 0.0 0.00 0.00 0.00 82 1014.2
20260506230005 49 291 0.0 0.0 0.00 0.00 0.00 82 1014.1
20260506224004 49 291 0.0 0.0 0.00 0.00 0.00 83 1014.1
20260506222005 50 291 0.0 0.0 0.00 0.00 0.00 83 1014.1
20260506221005 50 291 0.0 0.0 0.00 0.00 0.00 81 1014.0
20260506220005 50 291 0.0 1.0 0.00 0.00 0.00 81 1013.9
20260506215006 51 291 0.0 0.0 0.00 0.00 0.00 81 1013.8
20260506214005 51 291 0.0 1.0 0.00 0.00 0.00 81 1013.9
20260506213005 51 291 0.0 1.0 0.00 0.00 0.00 81 1014.0
20260506204005 52 294 0.0 0.0 0.00 0.00 0.00 77 1013.8
20260506203004 52 294 0.0 2.0 0.00 0.00 0.00 77 1013.7
20260506202005 52 294 0.0 1.0 0.00 0.00 0.00 77 1013.6
20260506201005 52 294 0.0 2.0 0.00 0.00 0.00 76 1013.6
20260506200005 52 297 0.0 1.0 0.00 0.00 0.00 75 1013.4
20260506195005 52 297 0.0 2.0 0.00 0.00 0.00 74 1013.3
20260506193005 53 298 0.0 2.0 0.00 0.00 0.00 74 1013.1
20260506192005 53 298 0.0 2.0 0.00 0.00 0.00 74 1013.1
20260506191006 53 298 0.0 3.0 0.00 0.00 0.00 74 1013.0
20260506190006 53 269 0.0 3.0 0.00 0.00 0.00 74 1013.0
20260506184005 54 288 1.0 3.0 0.00 0.00 0.00 75 1012.7
20260506183005 54 289 1.0 6.0 0.00 0.00 0.00 75 1012.7
20260506182005 54 307 2.0 6.0 0.00 0.00 0.00 76 1012.6
20260506181005 54 209 0.0 5.0 0.00 0.00 0.00 75 1012.5
20260506180005 55 202 1.0 9.0 0.00 0.00 0.00 73 1012.4
20260506175005 55 228 1.0 7.0 0.00 0.00 0.00 73 1012.3
20260506174004 55 209 1.0 7.0 0.00 0.00 0.00 72 1012.3
20260506173005 55 264 1.0 6.0 0.00 0.00 0.00 72 1012.2
20260506172004 55 224 1.0 3.0 0.00 0.00 0.00 71 1012.2
20260506171004 55 231 1.0 8.0 0.00 0.00 0.00 72 1012.2
20260506170004 56 209 1.0 7.0 0.00 0.00 0.00 71 1012.1
20260506165005 56 250 1.0 8.0 0.00 0.00 0.00 70 1012.2
20260506164004 57 248 2.0 9.0 0.00 0.00 0.00 69 1012.0
20260506163005 57 254 1.0 3.0 0.00 0.00 0.00 66 1012.0
20260506162005 58 243 1.0 5.0 0.00 0.00 0.00 61 1012.1
20260506161005 59 312 1.0 5.0 0.00 0.00 0.00 55 1012.1
20260506160005 59 340 1.0 7.0 0.00 0.00 0.00 54 1012.0
20260506155004 59 324 2.0 7.0 0.00 0.00 0.00 54 1012.1
20260506153004 59 310 1.0 5.0 0.00 0.00 0.00 53 1012.2
20260506152005 59 323 2.0 5.0 0.00 0.00 0.00 53 1012.0
20260506151004 59 328 1.0 3.0 0.00 0.00 0.00 54 1012.2
20260506150005 59 328 1.0 3.0 0.00 0.00 0.00 51 1012.2
20260506145004 60 0 1.0 3.0 0.00 0.00 0.00 51 1012.2
20260506144004 60 7 1.0 3.0 0.00 0.00 0.00 51 1012.3
20260506143004 60 14 1.0 3.0 0.00 0.00 0.00 49 1012.3
20260506141004 61 21 1.0 3.0 0.00 0.00 0.00 47 1012.3
20260506140004 62 24 1.0 5.0 0.00 0.00 0.00 46 1012.2
20260506134004 62 331 0.0 3.0 0.00 0.00 0.00 48 1012.3
20260506133004 61 342 2.0 3.0 0.00 0.00 0.00 48 1012.4
20260506132005 63 10 2.0 6.0 0.00 0.00 0.00 47 1012.4
20260506130005 62 12 2.0 5.0 0.00 0.00 0.00 51 1012.3
20260506125004 63 11 2.0 7.0 0.00 0.00 0.00 49 1012.4
20260506124004 64 356 2.0 6.0 0.00 0.00 0.00 50 1012.3
20260506121004 62 339 5.0 10.0 0.00 0.00 0.00 52 1012.4
20260506120004 62 336 3.0 8.0 0.00 0.00 0.00 52 1012.5
20260506115004 62 4 1.0 5.0 0.00 0.00 0.00 50 1012.5
20260506114004 62 21 2.0 6.0 0.00 0.00 0.00 52 1012.5
20260506113004 62 17 3.0 8.0 0.00 0.00 0.00 52 1012.5
20260506112004 62 4 2.0 6.0 0.00 0.00 0.00 52 1012.5
20260506110006 61 5 1.0 5.0 0.00 0.00 0.00 56 1012.6
20260506105004 61 356 2.0 5.0 0.00 0.00 0.00 52 1012.6
20260506104006 61 349 2.0 5.0 0.00 0.00 0.00 54 1012.6
20260506103006 60 3 1.0 3.0 0.00 0.00 0.00 53 1012.6
20260506102006 60 359 2.0 6.0 0.00 0.00 0.00 58 1012.6
20260506100006 58 10 2.0 5.0 0.00 0.00 0.00 66 1012.6
20260506095006 56 16 2.0 3.0 0.00 0.00 0.00 65 1012.6
20260506093006 55 6 2.0 6.0 0.00 0.00 0.00 71 1012.6
20260506091006 54 21 1.0 5.0 0.00 0.00 0.00 74 1012.8
20260506090006 53 9 1.0 8.0 0.00 0.00 0.00 75 1012.7
20260506084006 52 6 2.0 5.0 0.00 0.00 0.00 76 1012.7
20260506083006 52 19 2.0 5.0 0.00 0.00 0.00 76 1012.7